[TLELIST] Archives

 

[list_settings.list_name] Current TLEs

August 11th 2009 PST

HST 1 20580U 90037B 09221.04681895 +.00000273 +00000-0 +80957-5 0 04327 2 20580 028.4693 117.3019 0003579 124.3827 235.7157 15.00820535857809 ISS (ZARYA) 1 25544U 98067A 09223.04274503 .00005025 00000-0 39551-4 0 3927 2 25544 051.6402 025.2282 0007842 319.5327 141.8120 15.73565505614596 CXO 1 25867U 99040B 09222.04166667 -.00000016 +00000-0 +10000-3 0 03560 2 25867 065.6732 067.2072 7623874 275.6880 000.6675 00.37808094005217 ____________________________________________________________________ These 2-Line ...Continue Reading

[list_settings.list_name] Current TLEs

August 10th 2009 PST

HST 1 20580U 90037B 09219.51733303 +.00000233 +00000-0 +50007-5 0 04316 2 20580 028.4688 127.2853 0003542 109.3121 250.7884 15.00819865857571 ISS (ZARYA) 1 25544U 98067A 09220.88956628 +.00005428 +00000-0 +42404-4 0 03783 2 25544 051.6394 036.2778 0007662 309.4753 186.3395 15.73541776614254 CXO 1 25867U 99040B 09222.04166667 -.00000016 +00000-0 +10000-3 0 03560 2 25867 065.6732 067.2072 7623874 275.6880 000.6675 00.37808094005217 ____________________________________________________________________ These 2-Line ...Continue Reading

[list_settings.list_name] Current TLEs

August 9th 2009 PST

HST 1 20580U 90037B 09219.51733303 +.00000233 +00000-0 +50007-5 0 04316 2 20580 028.4688 127.2853 0003542 109.3121 250.7884 15.00819865857571 ISS (ZARYA) 1 25544U 98067A 09221.07368331 .00005502 00000-0 42917-4 0 3808 2 25544 051.6397 035.3330 0007642 310.9525 148.5443 15.73544433614283 CXO 1 25867U 99040B 09219.37500000 -.00000095 +00000-0 +10000-3 0 03551 2 25867 065.6602 067.3020 7620347 275.6789 357.6981 00.37805691005201 ____________________________________________________________________ These 2-Line ...Continue Reading

[list_settings.list_name] Current TLEs

August 8th 2009 PST

HST 1 20580U 90037B 09216.05936093 +.00000257 +00000-0 +68751-5 0 04303 2 20580 028.4681 149.8546 0003459 072.7348 287.3621 15.00819410857058 ISS (ZARYA) 1 25544U 98067A 09220.22737269 .00005127 00000-0 40322-4 0 3737 2 25544 051.6399 039.6753 0007527 307.2629 034.8692 15.73532727614148 CXO 1 25867U 99040B 09219.37500000 -.00000095 +00000-0 +10000-3 0 03551 2 25867 065.6602 067.3020 7620347 275.6789 357.6981 00.37805691005201 ____________________________________________________________________ These 2-Line ...Continue Reading

[list_settings.list_name] Current TLEs

August 7th 2009 PST

HST 1 20580U 90037B 09216.05936093 +.00000257 +00000-0 +68751-5 0 04303 2 20580 028.4681 149.8546 0003459 072.7348 287.3621 15.00819410857058 ISS (ZARYA) 1 25544U 98067A 09219.04941150 .00004925 00000-0 38932-4 0 3673 2 25544 051.6404 045.7187 0007482 303.2425 201.5995 15.73518273613962 CXO 1 25867U 99040B 09216.70833333 -.00000233 +00000-0 +10000-3 0 03546 2 25867 065.6479 067.3803 7616754 275.6784 354.7079 00.37805023005197 ____________________________________________________________________ These 2-Line ...Continue Reading

[list_settings.list_name] Current TLEs

August 6th 2009 PST

HST 1 20580U 90037B 09216.05936093 +.00000257 +00000-0 +68751-5 0 04303 2 20580 028.4681 149.8546 0003459 072.7348 287.3621 15.00819410857058 ISS (ZARYA) 1 25544U 98067A 09218.51579956 .00006548 00000-0 45775-4 0 3637 2 25544 051.6389 048.4603 0007689 300.7596 059.3175 15.73514052613888 CXO 1 25867U 99040B 09216.70833333 -.00000233 +00000-0 +10000-3 0 03546 2 25867 065.6479 067.3803 7616754 275.6784 354.7079 00.37805023005197 ____________________________________________________________________ These 2-Line ...Continue Reading

[list_settings.list_name] Current TLEs

August 5th 2009 PST

HST 1 20580U 90037B 09215.06186822 +.00000264 +00000-0 +74350-5 0 04298 2 20580 028.4686 156.3659 0003333 063.0370 297.0558 15.00819292856908 ISS (ZARYA) 1 25544U 98067A 09215.93642666 +.00004535 +00000-0 +36257-4 0 03470 2 25544 051.6405 061.6952 0007594 290.2882 208.8372 15.73482639613477 CXO 1 25867U 99040B 09216.70833333 -.00000233 +00000-0 +10000-3 0 03546 2 25867 065.6479 067.3803 7616754 275.6784 354.7079 00.37805023005197 ____________________________________________________________________ These 2-Line ...Continue Reading

[list_settings.list_name] Current TLEs

August 4th 2009 PST

HST 1 20580U 90037B 09214.06437658 +.00000264 +00000-0 +74350-5 0 04282 2 20580 028.4686 162.8743 0003333 052.4361 307.6607 15.00819098856756 ISS (ZARYA) 1 25544U 98067A 09214.91120747 +.00002900 +00000-0 +24809-4 0 03405 2 25544 051.6400 066.9554 0007713 287.2769 160.5572 15.73469401613312 CXO 1 25867U 99040B 09214.08333333 -.00000359 +00000-0 +10000-3 0 03538 2 25867 065.6378 067.4670 7612831 275.6749 357.3778 00.37806106005188 ____________________________________________________________________ These 2-Line ...Continue Reading

[list_settings.list_name] Current TLEs

August 3rd 2009 PST

HST 1 20580U 90037B 09211.20489523 +.00000241 +00000-0 +56284-5 0 04273 2 20580 028.4685 181.5421 0003158 022.0185 338.0570 15.00818437856324 ISS (ZARYA) 1 25544U 98067A 09213.83477708 +.00133469 +00000-0 +92643-3 0 03334 2 25544 051.6394 072.4795 0007331 277.0111 189.2970 15.73478508613146 CXO 1 25867U 99040B 09214.08333333 -.00000359 +00000-0 +10000-3 0 03538 2 25867 065.6378 067.4670 7612831 275.6749 357.3778 00.37806106005188 ____________________________________________________________________ These 2-Line ...Continue Reading

[list_settings.list_name] Current TLEs

August 2nd 2009 PST

HST 1 20580U 90037B 09211.20489523 +.00000241 +00000-0 +56284-5 0 04273 2 20580 028.4685 181.5421 0003158 022.0185 338.0570 15.00818437856324 ISS (ZARYA) 1 25544U 98067A 09212.80748319 +.00005556 +00000-0 +42101-4 0 03261 2 25544 051.6403 077.7533 0006440 303.7541 098.0860 15.74220870612983 CXO 1 25867U 99040B 09214.08333333 -.00000359 +00000-0 +10000-3 0 03538 2 25867 065.6378 067.4670 7612831 275.6749 357.3778 00.37806106005188 ____________________________________________________________________ These 2-Line ...Continue Reading
  • This mailing list is a public mailing list - anyone may join or leave, at any time.
  • This mailing list is announce-only.

International Space Station (ISS) / Hubble Space Telescope (HST) / Chandra X-Ray Observatory Orbital Data via EMAIL

Privacy Policy:

Private list